Weather in Slupsk

Poland     54°28′00″N   17°01′52″E
temp.,
°C
wind,
m/s
gust,
m/s
humid.,
%
clouds,
%
prec.,
mm/h
press.,
hPa
HPBL,
m
28 november, sun
sun2801:00+2sse4878100 0.0 996399
04:00+1sse4997100 1.0 995351
07:00+1s4889100 1.2 995429
10:00+2ssw489390 0.0 997468
13:00+3sw4581100 0.0 997754
16:00+3ssw2274100 0.0 99768
19:00+3nne1175100 0.0 99848
22:00+1ene2382100 0.0 99859
29 november, mon
mon2901:00+2nne2384100 0.0 99785
04:00+3n4897100 0.9 996682
07:00+3nne4897100 3.2 995676
10:00+3nne61195100 1.6 996783
13:00+3n71294100 4.1 996910
16:00+3n91487100 2.1 9971051
19:00+3n81286100 2.8 9991059
22:00+3nnw91275100 0.4 10001059
30 november, tue
tue3001:00+3nnw81172100 1.0 10011055
04:00+1nw6106455 0.1 1002441
07:00+1wnw59645 0.1 1002342
10:00+1sw4767100 0.0 1001384
13:00+1ssw5781100 0.1 998481
16:000sse61296100 0.8 994691
19:00+1sse5998100 4.1 991462
22:00+2s1299100 0.4 99193
1 december, wed
wed101:00+1ne3499100 0.6 994200
04:00+1e1399100 0.0 996211
07:00+1se2399100 0.0 997201
10:00+3ssw51089100 0.0 995461
13:00+2sse61397100 3.9 991549
16:00+6sw81593100 2.9 988947
19:00+6ssw91591100 5.3 9851053
22:00+6sw111985100 0.9 9831170
2 december, thu
thu201:00+5wsw142383100 1.2 9831457
04:00+5w132083100 0.1 9861391
07:00+4wnw81478100 0.3 9891202
10:00+4wnw51076100 0.0 9911018
13:00+4nw237899 0.0 992554
16:00+3ese3388100 0.0 993306
19:00+3ese4797100 0.4 993599
22:00+4ssw598694 2.1 993627